Time,TemperatureF,DewpointF,PressureIn,WindDirection,WindDirectionDegrees,WindSpeedMPH,WindSpeedGustMPH,Humidity,HourlyPrecipIn,Conditions,Clouds,dailyrainin,SoftwareType,DateUTC
2013-11-30 00:12:00,47.1,41.0,30.56,SW,218,13.0,20.0,80,0.00,,,0.00,weatherlink.com 1.10,2013-11-30 05:12:00,
2013-11-30 00:27:00,46.9,41.0,30.55,SSW,195,8.0,23.0,80,0.00,,,0.00,weatherlink.com 1.10,2013-11-30 05:27:00,
2013-11-30 00:42:00,46.9,41.0,30.55,SSW,210,13.0,19.0,81,0.00,,,0.00,weatherlink.com 1.10,2013-11-30 05:42:00,
2013-11-30 00:57:00,47.0,41.0,30.55,South,180,14.0,23.0,80,0.00,,,0.00,weatherlink.com 1.10,2013-11-30 05:57:00,
2013-11-30 01:12:00,47.1,41.0,30.55,SW,226,13.0,22.0,80,0.00,,,0.00,weatherlink.com 1.10,2013-11-30 06:12:00,
2013-11-30 01:27:00,47.2,42.0,30.55,South,184,13.0,19.0,81,0.00,,,0.00,weatherlink.com 1.10,2013-11-30 06:27:00,
2013-11-30 01:42:00,47.3,42.0,30.55,SSW,211,14.0,18.0,81,0.00,,,0.00,weatherlink.com 1.10,2013-11-30 06:42:00,
2013-11-30 01:57:00,47.4,42.0,30.55,SSW,207,13.0,17.0,82,0.00,,,0.00,weatherlink.com 1.10,2013-11-30 06:57:00,
2013-11-30 02:27:00,47.5,43.0,30.55,SSW,205,13.0,18.0,84,0.00,,,0.00,weatherlink.com 1.10,2013-11-30 07:27:00,
2013-11-30 02:42:00,47.3,43.0,30.55,SSW,200,8.0,18.0,84,0.00,,,0.00,weatherlink.com 1.10,2013-11-30 07:42:00,
2013-11-30 02:57:00,47.4,43.0,30.55,SSW,199,12.0,18.0,84,0.00,,,0.00,weatherlink.com 1.10,2013-11-30 07:57:00,
2013-11-30 03:12:00,47.3,43.0,30.55,South,172,14.0,16.0,85,0.00,,,0.00,weatherlink.com 1.10,2013-11-30 08:12:00,
2013-11-30 03:27:00,47.3,43.0,30.54,SSW,195,13.0,17.0,85,0.00,,,0.00,weatherlink.com 1.10,2013-11-30 08:27:00,
2013-11-30 03:42:00,47.6,43.0,30.54,SSW,193,11.0,17.0,85,0.00,,,0.00,weatherlink.com 1.10,2013-11-30 08:42:00,
2013-11-30 03:57:00,47.8,43.0,30.54,SW,224,11.0,18.0,84,0.00,,,0.00,weatherlink.com 1.10,2013-11-30 08:57:00,
2013-11-30 04:12:00,47.9,43.0,30.54,SSW,205,15.0,18.0,83,0.00,,,0.00,weatherlink.com 1.10,2013-11-30 09:12:00,
2013-11-30 04:27:00,47.8,43.0,30.54,SW,219,9.0,17.0,83,0.00,,,0.00,weatherlink.com 1.10,2013-11-30 09:27:00,
2013-11-30 04:42:00,47.8,43.0,30.54,SSW,213,13.0,17.0,84,0.00,,,0.00,weatherlink.com 1.10,2013-11-30 09:42:00,
2013-11-30 04:57:00,47.7,43.0,30.53,SW,221,11.0,17.0,85,0.00,,,0.00,weatherlink.com 1.10,2013-11-30 09:57:00,
2013-11-30 05:12:00,47.8,44.0,30.54,SSW,212,11.0,19.0,85,0.00,,,0.00,weatherlink.com 1.10,2013-11-30 10:12:00,
2013-11-30 05:27:00,47.7,44.0,30.53,SSW,200,9.0,15.0,86,0.00,,,0.00,weatherlink.com 1.10,2013-11-30 10:27:00,
2013-11-30 05:42:00,47.5,44.0,30.53,SW,224,10.0,15.0,87,0.00,,,0.00,weatherlink.com 1.10,2013-11-30 10:42:00,
2013-11-30 05:57:00,47.5,44.0,30.53,SW,219,13.0,16.0,87,0.00,,,0.00,weatherlink.com 1.10,2013-11-30 10:57:00,
2013-11-30 06:13:00,47.6,44.0,30.53,SSW,212,9.0,14.0,87,0.00,,,0.00,weatherlink.com 1.10,2013-11-30 11:13:00,
2013-11-30 06:27:00,47.7,44.0,30.53,SSE,162,8.0,16.0,87,0.00,,,0.00,weatherlink.com 1.10,2013-11-30 11:27:00,
2013-11-30 06:42:00,47.7,44.0,30.54,SSE,164,5.0,13.0,88,0.00,,,0.00,weatherlink.com 1.10,2013-11-30 11:42:00,
2013-11-30 06:57:00,47.6,44.0,30.54,SSE,155,6.0,15.0,88,0.00,,,0.00,weatherlink.com 1.10,2013-11-30 11:57:00,
2013-11-30 07:12:00,47.8,45.0,30.54,SSW,207,10.0,12.0,89,0.00,,,0.00,weatherlink.com 1.10,2013-11-30 12:12:00,
2013-11-30 07:27:00,48.5,45.0,30.54,SSW,198,9.0,14.0,88,0.00,,,0.00,weatherlink.com 1.10,2013-11-30 12:27:00,
2013-11-30 07:43:00,48.9,46.0,30.54,SSW,200,9.0,15.0,88,0.00,,,0.00,weatherlink.com 1.10,2013-11-30 12:43:00,
2013-11-30 07:58:00,49.0,46.0,30.54,SSW,205,7.0,14.0,89,0.00,,,0.00,weatherlink.com 1.10,2013-11-30 12:58:00,
2013-11-30 08:13:00,49.2,46.0,30.54,SW,223,9.0,15.0,89,0.00,,,0.00,weatherlink.com 1.10,2013-11-30 13:13:00,
2013-11-30 08:28:00,49.6,46.0,30.54,SSW,203,9.0,16.0,88,0.00,,,0.00,weatherlink.com 1.10,2013-11-30 13:28:00,
2013-11-30 08:43:00,49.9,47.0,30.54,SSW,195,8.0,16.0,88,0.00,,,0.00,weatherlink.com 1.10,2013-11-30 13:43:00,
2013-11-30 08:58:00,49.9,47.0,30.54,SSW,210,12.0,15.0,88,0.00,,,0.00,weatherlink.com 1.10,2013-11-30 13:58:00,
2013-11-30 09:13:00,50.1,47.0,30.54,SW,217,12.0,16.0,88,0.00,,,0.00,weatherlink.com 1.10,2013-11-30 14:13:00,
2013-11-30 09:28:00,50.4,47.0,30.54,SSW,192,10.0,15.0,87,0.00,,,0.00,weatherlink.com 1.10,2013-11-30 14:28:00,
2013-11-30 09:43:00,50.7,47.0,30.54,SW,219,13.0,15.0,87,0.00,,,0.00,weatherlink.com 1.10,2013-11-30 14:43:00,
2013-11-30 09:58:00,51.0,47.0,30.54,South,191,9.0,17.0,86,0.00,,,0.00,weatherlink.com 1.10,2013-11-30 14:58:00,
2013-11-30 10:13:00,51.2,47.0,30.53,SSW,207,12.0,15.0,86,0.00,,,0.00,weatherlink.com 1.10,2013-11-30 15:13:00,
2013-11-30 10:28:00,51.5,48.0,30.53,SSW,207,13.0,18.0,86,0.00,,,0.00,weatherlink.com 1.10,2013-11-30 15:28:00,
2013-11-30 10:43:00,51.7,47.0,30.53,South,179,12.0,18.0,85,0.00,,,0.00,weatherlink.com 1.10,2013-11-30 15:43:00,
2013-11-30 10:58:00,52.0,47.0,30.52,WSW,241,11.0,19.0,84,0.00,,,0.00,weatherlink.com 1.10,2013-11-30 15:58:00,
2013-11-30 11:13:00,52.3,48.0,30.52,SSW,203,10.0,20.0,84,0.00,,,0.00,weatherlink.com 1.10,2013-11-30 16:13:00,
2013-11-30 11:28:00,52.3,48.0,30.51,SSW,201,10.0,18.0,84,0.00,,,0.00,weatherlink.com 1.10,2013-11-30 16:28:00,
2013-11-30 11:43:00,52.3,48.0,30.50,SSW,198,10.0,19.0,84,0.00,,,0.00,weatherlink.com 1.10,2013-11-30 16:43:00,
2013-11-30 11:58:00,52.5,48.0,30.50,SSW,207,15.0,18.0,84,0.00,,,0.00,weatherlink.com 1.10,2013-11-30 16:58:00,
2013-11-30 12:13:00,52.6,48.0,30.49,SW,222,16.0,23.0,84,0.00,,,0.00,weatherlink.com 1.10,2013-11-30 17:13:00,
2013-11-30 12:28:00,52.6,48.0,30.49,SW,227,13.0,22.0,84,0.00,,,0.00,weatherlink.com 1.10,2013-11-30 17:28:00,
2013-11-30 12:43:00,52.4,48.0,30.48,SW,221,14.0,21.0,85,0.00,,,0.00,weatherlink.com 1.10,2013-11-30 17:43:00,
2013-11-30 12:58:00,52.4,48.0,30.47,SW,218,21.0,25.0,84,0.00,,,0.00,weatherlink.com 1.10,2013-11-30 17:58:00,
2013-11-30 13:13:00,52.4,48.0,30.46,SW,232,16.0,23.0,85,0.00,,,0.00,weatherlink.com 1.10,2013-11-30 18:13:00,
2013-11-30 13:28:00,52.6,48.0,30.46,SW,222,13.0,20.0,85,0.00,,,0.00,weatherlink.com 1.10,2013-11-30 18:28:00,
2013-11-30 13:43:00,52.8,48.0,30.45,SW,216,15.0,21.0,84,0.00,,,0.00,weatherlink.com 1.10,2013-11-30 18:43:00,
2013-11-30 13:58:00,52.9,48.0,30.45,SW,214,14.0,24.0,84,0.00,,,0.00,weatherlink.com 1.10,2013-11-30 18:58:00,
2013-11-30 14:13:00,52.8,48.0,30.44,SW,231,19.0,20.0,85,0.00,,,0.00,weatherlink.com 1.10,2013-11-30 19:13:00,
2013-11-30 14:28:00,52.7,48.0,30.44,WSW,238,10.0,21.0,84,0.00,,,0.00,weatherlink.com 1.10,2013-11-30 19:28:00,
2013-11-30 14:43:00,52.6,48.0,30.43,SSW,210,18.0,20.0,85,0.00,,,0.00,weatherlink.com 1.10,2013-11-30 19:43:00,
2013-11-30 14:58:00,52.4,48.0,30.43,SW,217,8.0,18.0,85,0.00,,,0.00,weatherlink.com 1.10,2013-11-30 19:58:00,
2013-11-30 15:13:00,52.3,48.0,30.43,SW,217,15.0,19.0,86,0.00,,,0.00,weatherlink.com 1.10,2013-11-30 20:13:00,
2013-11-30 15:28:00,52.2,49.0,30.43,SSW,198,13.0,19.0,87,0.00,,,0.00,weatherlink.com 1.10,2013-11-30 20:28:00,
2013-11-30 15:43:00,51.9,49.0,30.43,SSW,210,13.0,18.0,88,0.00,,,0.00,weatherlink.com 1.10,2013-11-30 20:43:00,
2013-11-30 15:58:00,51.7,48.0,30.43,South,177,12.0,16.0,88,0.00,,,0.00,weatherlink.com 1.10,2013-11-30 20:58:00,
2013-11-30 16:13:00,51.4,48.0,30.43,SSW,193,8.0,17.0,88,0.00,,,0.00,weatherlink.com 1.10,2013-11-30 21:13:00,
2013-11-30 16:28:00,51.0,48.0,30.42,South,177,8.0,17.0,89,0.00,,,0.00,weatherlink.com 1.10,2013-11-30 21:28:00,
2013-11-30 16:44:00,50.6,48.0,30.42,South,178,10.0,18.0,90,0.00,,,0.00,weatherlink.com 1.10,2013-11-30 21:44:00,
2013-11-30 16:59:00,50.5,48.0,30.41,SSW,205,9.0,16.0,90,0.00,,,0.00,weatherlink.com 1.10,2013-11-30 21:59:00,
2013-11-30 17:14:00,50.4,48.0,30.41,South,191,8.0,17.0,91,0.00,,,0.00,weatherlink.com 1.10,2013-11-30 22:14:00,
2013-11-30 17:29:00,50.3,48.0,30.41,SSW,200,12.0,18.0,91,0.00,,,0.00,weatherlink.com 1.10,2013-11-30 22:29:00,
2013-11-30 17:44:00,50.2,48.0,30.40,SW,217,15.0,21.0,91,0.00,,,0.00,weatherlink.com 1.10,2013-11-30 22:44:00,
2013-11-30 17:59:00,50.2,48.0,30.40,SSW,201,10.0,21.0,91,0.00,,,0.00,weatherlink.com 1.10,2013-11-30 22:59:00,
2013-11-30 18:14:00,50.1,48.0,30.40,South,184,14.0,19.0,91,0.00,,,0.00,weatherlink.com 1.10,2013-11-30 23:14:00,
2013-11-30 18:29:00,50.0,48.0,30.40,SSW,203,11.0,18.0,92,0.00,,,0.00,weatherlink.com 1.10,2013-11-30 23:29:00,
2013-11-30 18:44:00,50.1,48.0,30.39,SW,218,13.0,19.0,92,0.00,,,0.00,weatherlink.com 1.10,2013-11-30 23:44:00,
2013-11-30 19:14:00,49.9,48.0,30.39,South,181,10.0,15.0,92,0.00,,,0.00,weatherlink.com 1.10,2013-12-01 00:14:00,
2013-11-30 19:29:00,49.9,48.0,30.39,SW,216,8.0,15.0,93,0.00,,,0.00,weatherlink.com 1.10,2013-12-01 00:29:00,
2013-11-30 19:44:00,49.8,48.0,30.38,South,188,15.0,15.0,93,0.00,,,0.00,weatherlink.com 1.10,2013-12-01 00:44:00,
2013-11-30 19:59:00,49.7,48.0,30.37,SSW,205,12.0,13.0,93,0.00,,,0.00,weatherlink.com 1.10,2013-12-01 00:59:00,
2013-11-30 20:14:00,49.8,48.0,30.37,SSW,195,7.0,15.0,93,0.00,,,0.00,weatherlink.com 1.10,2013-12-01 01:14:00,
2013-11-30 20:29:00,49.8,48.0,30.37,SSW,205,8.0,15.0,94,0.00,,,0.00,weatherlink.com 1.10,2013-12-01 01:29:00,
2013-11-30 20:44:00,49.9,48.0,30.37,SSW,198,9.0,16.0,94,0.00,,,0.00,weatherlink.com 1.10,2013-12-01 01:44:00,
2013-11-30 20:59:00,50.0,48.0,30.37,South,180,9.0,13.0,94,0.00,,,0.00,weatherlink.com 1.10,2013-12-01 01:59:00,
2013-11-30 21:14:00,50.0,48.0,30.36,South,173,6.0,14.0,94,0.00,,,0.00,weatherlink.com 1.10,2013-12-01 02:14:00,
2013-11-30 21:29:00,49.9,48.0,30.36,South,188,8.0,13.0,94,0.00,,,0.00,weatherlink.com 1.10,2013-12-01 02:29:00,
2013-11-30 21:45:00,49.8,48.0,30.35,SSW,201,8.0,12.0,94,0.00,,,0.00,weatherlink.com 1.10,2013-12-01 02:45:00,
2013-11-30 21:59:00,49.6,48.0,30.35,South,190,7.0,10.0,94,0.00,,,0.00,weatherlink.com 1.10,2013-12-01 02:59:00,
2013-11-30 22:14:00,49.6,48.0,30.34,SSW,204,8.0,12.0,95,0.00,,,0.00,weatherlink.com 1.10,2013-12-01 03:14:00,
2013-11-30 22:29:00,49.4,48.0,30.34,SW,214,6.0,11.0,95,0.00,,,0.00,weatherlink.com 1.10,2013-12-01 03:29:00,
2013-11-30 22:44:00,49.3,48.0,30.34,SSW,193,8.0,12.0,95,0.00,,,0.00,weatherlink.com 1.10,2013-12-01 03:44:00,
2013-11-30 22:59:00,49.1,48.0,30.34,SSW,203,6.0,10.0,95,0.00,,,0.00,weatherlink.com 1.10,2013-12-01 03:59:00,
2013-11-30 23:14:00,49.0,48.0,30.33,South,186,7.0,9.0,96,0.00,,,0.00,weatherlink.com 1.10,2013-12-01 04:14:00,
2013-11-30 23:29:00,48.9,48.0,30.32,South,191,6.0,10.0,96,0.00,,,0.00,weatherlink.com 1.10,2013-12-01 04:29:00,
2013-11-30 23:44:00,48.9,48.0,30.32,SSW,212,7.0,12.0,96,0.00,,,0.00,weatherlink.com 1.10,2013-12-01 04:44:00,
2013-11-30 23:59:00,49.0,48.0,30.33,ESE,120,4.0,11.0,96,0.00,,,0.00,weatherlink.com 1.10,2013-12-01 04:59:00,